Capo Mele, Italy

8:50 AM CEST on September 23, 2017 (GMT +0200)
Capo Mele

Weather History for LIMU - February, 2014

Change the Weather History Date:

Wednesday, February 19, 2014

  Actual Average Record
Temperature  
Mean Temperature 54 °F -  
Max Temperature 57 °F 55 °F 60 °F (1997)
Min Temperature 51 °F 45 °F 41 °F (2003)
Degree Days  
Heating Degree Days 11    
Growing Degree Days 4 (Base 50)    
Moisture  
Dew Point 44 °F    
Average Humidity 66    
Maximum Humidity 100    
Minimum Humidity 35    
Precipitation  
Precipitation 0.02 in 0.09 in - ()
Sea Level Pressure  
Sea Level Pressure 29.88 in    
Wind  
Wind Speed 20 mph ()    
Max Wind Speed 39 mph    
Max Gust Speed 54 mph    
Visibility 9.9 miles    
Events Rain    
Averages and records for this station are not official NWS values.
T = Trace of Precipitation, MM = Missing Value Source: Averaged Metar Reports

Daily Weather History Graph

Daily Weather History Graph

Search for Another Location

Airport or City:

Trip Planner

Search our weather history database for the weather conditions in past years. The results will help you decide how hot, cold, wet, or windy it might be!

Date:

Astronomy

Feb. 19, 2014 Rise Set
Actual Time 7:20 AM CET 6:02 PM CET
Civil Twilight 6:51 AM CET 6:31 PM CET
Nautical Twilight 6:17 AM CET 7:05 PM CET
Astronomical Twilight 5:44 AM CET 7:38 PM CET
Moon 10:50 PM CET (2/19) 9:07 AM CET (2/19)
Length of Visible Light 11h 40m
Length of Day
10h 41m
Waning Gibbous, 82% of the Moon is Illuminated
Feb 19
Waning Gibbous
Feb 22
Last Quarter
Mar 1
New
Mar 8
First Quarter
Mar 16
Full

Hourly Weather History & Observations

Time (CET) Temp. Dew Point Humidity Pressure Visibility Wind Dir Wind Speed Gust Speed Precip Events Conditions
12:00 AM 57 °F 37 °F 35% 29.93 in 12 mi North 34.5 mph - -   Overcast
12:55 AM 55.4 °F 37.4 °F 51% 29.92 in - North 27.6 mph 41.4 mph N/A   Clear
1:00 AM 56 °F 37 °F 36% 29.93 in 12 mi North 27.6 mph - -   Overcast
1:55 AM 53.6 °F 39.2 °F 58% 29.89 in - North 38.0 mph 51.8 mph N/A   Clear
2:00 AM 54 °F 39 °F 46% 29.90 in 12 mi North 38.0 mph - -   Mostly Cloudy
2:55 AM 55.4 °F 35.6 °F 47% 29.86 in - North 39.1 mph 54.1 mph N/A   Clear
3:00 AM 55 °F 36 °F 38% 29.89 in 12 mi North 39.1 mph - -   Scattered Clouds
3:55 AM 55.4 °F 35.6 °F 47% 29.86 in - North 35.7 mph 48.3 mph N/A   Clear
4:00 AM 55 °F 36 °F 37% 29.86 in 12 mi North 35.7 mph - -   Scattered Clouds
4:55 AM 53.6 °F 35.6 °F 51% 29.86 in - North 26.5 mph 41.4 mph N/A   Clear
5:00 AM 54 °F 36 °F 39% 29.87 in 12 mi North 26.5 mph - -   Mostly Cloudy
5:55 AM 53.6 °F 37.4 °F 54% 29.86 in - North 23.0 mph 36.8 mph N/A   Clear
6:00 AM 54 °F 37 °F 42% 29.86 in 12 mi North 23.0 mph - -   Overcast
6:55 AM 53.6 °F 39.2 °F 58% 29.83 in - North 25.3 mph 36.8 mph N/A   Clear
7:00 AM 54 °F 38 °F 44% 29.86 in 12 mi North 25.3 mph - -   Mostly Cloudy
7:55 AM 55.4 °F 39.2 °F 54% 29.83 in 6.2 mi North 21.9 mph - N/A   Mostly Cloudy
8:00 AM 55 °F 39 °F 43% 29.85 in 12 mi North 21.9 mph - -   Mostly Cloudy
8:55 AM 55.4 °F 39.2 °F 54% 29.86 in 6.2 mi North 20.7 mph - N/A   Scattered Clouds
9:00 AM 55 °F 40 °F 46% 29.86 in 12 mi North 20.7 mph - -   Partly Cloudy
9:55 AM 55.4 °F 39.2 °F 54% 29.86 in 6.2 mi North 16.1 mph - N/A   Scattered Clouds
10:00 AM 55 °F 40 °F 46% 29.86 in 12 mi North 16.1 mph - -   Overcast
10:55 AM 53.6 °F 41.0 °F 62% 29.89 in 6.2 mi West 11.5 mph - N/A Rain Light Rain
11:00 AM 54 °F 42 °F 53% 29.90 in 12 mi West 11.5 mph - - Rain Light Rain
11:55 AM 55.4 °F 46.4 °F 72% 29.89 in 6.2 mi North 9.2 mph - N/A   Mostly Cloudy
12:00 PM 55 °F 46 °F 62% 29.89 in 12 mi North 9.2 mph - - Rain Light Rain
12:55 PM 55.4 °F 46.4 °F 72% 29.89 in 6.2 mi SE 5.8 mph - N/A   Scattered Clouds
1:00 PM 55 °F 46 °F 64% 29.89 in 12 mi SE 5.8 mph - -   Partly Cloudy
1:55 PM 55.4 °F 48.2 °F 77% 29.89 in 6.2 mi East 2.3 mph - N/A   Scattered Clouds
2:00 PM 56 °F 48 °F 66% 29.89 in 12 mi East 2.3 mph - -   Partly Cloudy
2:55 PM 55.4 °F 46.4 °F 72% 29.86 in 6.2 mi NE 3.5 mph - N/A   Scattered Clouds
3:00 PM 55 °F 47 °F 66% 29.87 in 12 mi NE 3.5 mph - -   Partly Cloudy
3:55 PM 57.2 °F 53.6 °F 88% 29.86 in 6.2 mi NNW 3.5 mph - N/A   Scattered Clouds
4:00 PM 57 °F 53 °F 81% 29.86 in 12 mi NNW 3.5 mph - -   Partly Cloudy
4:55 PM 53.6 °F 53.6 °F 100% 29.86 in 6.2 mi SSW 11.5 mph - N/A   Mostly Cloudy
5:00 PM 54 °F 53 °F 94% 29.87 in 12 mi SSW 11.5 mph - -   Mostly Cloudy
5:55 PM 53.6 °F 53.6 °F 100% 29.86 in 6.2 mi SW 13.8 mph - N/A   Mostly Cloudy
6:00 PM 54 °F 53 °F 95% 29.87 in 12 mi SW 13.8 mph - -   Overcast
6:55 PM 53.6 °F 51.8 °F 94% 29.86 in 6.2 mi SW 13.8 mph - N/A Rain Light Rain
7:00 PM 53 °F 53 °F 98% 29.89 in 12 mi SW 13.8 mph - - Rain Light Rain
7:55 PM 51.8 °F 50.0 °F 94% 29.89 in 6.2 mi WSW 8.1 mph - N/A   Mostly Cloudy
8:00 PM 52 °F 50 °F 89% 29.92 in 12 mi WSW 8.1 mph - - Rain Light Rain
8:55 PM 51.8 °F 50.0 °F 94% 29.92 in 6.2 mi SW 9.2 mph - N/A   Mostly Cloudy
9:00 PM 52 °F 50 °F 89% 29.93 in 12 mi SW 9.2 mph - -   Partly Cloudy
9:55 PM 51.8 °F 48.2 °F 88% 29.92 in - SW 10.4 mph - N/A   Clear
10:00 PM 52 °F 49 °F 86% 29.93 in 12 mi SW 10.4 mph - -   Partly Cloudy
10:55 PM 51.8 °F 48.2 °F 88% 29.92 in - WSW 5.8 mph - N/A   Clear
11:00 PM 53 °F 48 °F 79% 29.93 in 12 mi WSW 5.8 mph - -   Partly Cloudy
11:55 PM 51.8 °F 46.4 °F 82% 29.92 in - SSW 6.9 mph - N/A   Clear